| time (UTC) | temp F | wind direction | speed MPH | gust MPH | rain 1hr in | rain 24hr in | rain mn in | humidity % | barometer mb |
| 20260509042806 | 52 | 195 | 2.0 | 7.0 | 0.00 | 0.00 | 0.00 | 73 | 1015.2 |
| 20260509042307 | 52 | 256 | 0.0 | 2.0 | 0.00 | 0.00 | 0.00 | 73 | 1015.4 |
| 20260509041807 | 52 | 123 | 1.0 | 8.0 | 0.00 | 0.00 | 0.00 | 72 | 1015.5 |
| 20260509041306 | 52 | 249 | 3.0 | 8.0 | 0.00 | 0.00 | 0.00 | 72 | 1015.4 |
| 20260509040807 | 53 | 270 | 1.0 | 5.0 | 0.00 | 0.00 | 0.00 | 71 | 1015.3 |
| 20260509040306 | 53 | 198 | 2.0 | 5.0 | 0.00 | 0.00 | 0.00 | 71 | 1015.4 |
| 20260509035307 | 53 | 237 | 3.0 | 10.0 | 0.00 | 0.00 | 0.00 | 70 | 1015.3 |
| 20260509034807 | 53 | 188 | 2.0 | 9.0 | 0.00 | 0.00 | 0.00 | 70 | 1015.5 |
| 20260509034306 | 53 | 264 | 2.0 | 6.0 | 0.00 | 0.00 | 0.00 | 70 | 1015.6 |
| 20260509033807 | 53 | 237 | 3.0 | 5.0 | 0.00 | 0.00 | 0.00 | 70 | 1015.5 |
| 20260509033306 | 53 | 178 | 2.0 | 7.0 | 0.00 | 0.00 | 0.00 | 69 | 1015.5 |
| 20260509032806 | 53 | 240 | 3.0 | 7.0 | 0.00 | 0.00 | 0.00 | 69 | 1015.6 |
| 20260509032307 | 54 | 247 | 2.0 | 8.0 | 0.00 | 0.00 | 0.00 | 68 | 1015.4 |
| 20260509031807 | 54 | 215 | 3.0 | 6.0 | 0.00 | 0.00 | 0.00 | 68 | 1015.5 |
| 20260509031307 | 54 | 228 | 3.0 | 8.0 | 0.00 | 0.00 | 0.00 | 67 | 1015.5 |
| 20260509030807 | 54 | 211 | 5.0 | 7.0 | 0.00 | 0.00 | 0.00 | 67 | 1015.5 |
| 20260509030306 | 54 | 180 | 3.0 | 6.0 | 0.00 | 0.00 | 0.00 | 67 | 1015.5 |
| 20260509025806 | 54 | 254 | 2.0 | 6.0 | 0.00 | 0.00 | 0.00 | 66 | 1015.5 |
| 20260509025307 | 54 | 242 | 2.0 | 7.0 | 0.00 | 0.00 | 0.00 | 66 | 1015.6 |
| 20260509024806 | 54 | 222 | 4.0 | 9.0 | 0.00 | 0.00 | 0.00 | 66 | 1015.6 |
| 20260509024307 | 54 | 195 | 7.0 | 9.0 | 0.00 | 0.00 | 0.00 | 65 | 1015.8 |
| 20260509023806 | 54 | 252 | 3.0 | 10.0 | 0.00 | 0.00 | 0.00 | 65 | 1015.5 |
| 20260509023307 | 54 | 231 | 3.0 | 6.0 | 0.00 | 0.00 | 0.00 | 64 | 1015.6 |
| 20260509022307 | 55 | 196 | 5.0 | 9.0 | 0.00 | 0.00 | 0.00 | 63 | 1015.3 |
| 20260509021807 | 55 | 265 | 2.0 | 7.0 | 0.00 | 0.00 | 0.00 | 62 | 1015.2 |
| 20260509021306 | 55 | 263 | 4.0 | 10.0 | 0.00 | 0.00 | 0.00 | 62 | 1015.5 |
| 20260509020807 | 55 | 209 | 7.0 | 8.0 | 0.00 | 0.00 | 0.00 | 61 | 1015.3 |
| 20260509020307 | 55 | 209 | 7.0 | 9.0 | 0.00 | 0.00 | 0.00 | 61 | 1015.5 |
| 20260509015806 | 55 | 248 | 5.0 | 9.0 | 0.00 | 0.00 | 0.00 | 61 | 1015.4 |
| 20260509015306 | 55 | 181 | 5.0 | 8.0 | 0.00 | 0.00 | 0.00 | 60 | 1015.5 |
| 20260509014807 | 55 | 219 | 5.0 | 8.0 | 0.00 | 0.00 | 0.00 | 60 | 1015.3 |
| 20260509014306 | 55 | 210 | 4.0 | 9.0 | 0.00 | 0.00 | 0.00 | 60 | 1015.4 |
| 20260509013807 | 55 | 239 | 5.0 | 9.0 | 0.00 | 0.00 | 0.00 | 59 | 1015.1 |
| 20260509013306 | 55 | 233 | 3.0 | 3.0 | 0.00 | 0.00 | 0.00 | 59 | 1015.1 |
| 20260509012806 | 55 | 182 | 3.0 | 5.0 | 0.00 | 0.00 | 0.00 | 59 | 1015.0 |
| 20260509012307 | 56 | 226 | 3.0 | 5.0 | 0.00 | 0.00 | 0.00 | 57 | 1015.1 |
| 20260509011806 | 56 | 227 | 4.0 | 13.0 | 0.00 | 0.00 | 0.00 | 57 | 1015.0 |
| 20260509011306 | 55 | 167 | 8.0 | 13.0 | 0.00 | 0.00 | 0.00 | 57 | 1014.9 |
| 20260509010807 | 55 | 232 | 2.0 | 7.0 | 0.00 | 0.00 | 0.00 | 56 | 1014.8 |
| 20260509010306 | 56 | 205 | 3.0 | 7.0 | 0.00 | 0.00 | 0.00 | 55 | 1014.7 |
| 20260509005806 | 56 | 209 | 4.0 | 12.0 | 0.00 | 0.00 | 0.00 | 54 | 1014.8 |
| 20260509005306 | 56 | 240 | 4.0 | 7.0 | 0.00 | 0.00 | 0.00 | 54 | 1014.8 |
| 20260509004806 | 56 | 247 | 4.0 | 14.0 | 0.00 | 0.00 | 0.00 | 53 | 1014.6 |
| 20260509004306 | 56 | 240 | 5.0 | 9.0 | 0.00 | 0.00 | 0.00 | 52 | 1014.4 |
| 20260509003306 | 56 | 217 | 5.0 | 8.0 | 0.00 | 0.00 | 0.00 | 51 | 1014.4 |
| 20260509002806 | 57 | 216 | 2.0 | 6.0 | 0.00 | 0.00 | 0.00 | 50 | 1014.5 |
| 20260509002307 | 57 | 223 | 2.0 | 10.0 | 0.00 | 0.00 | 0.00 | 49 | 1014.4 |
| 20260509001806 | 57 | 226 | 6.0 | 10.0 | 0.00 | 0.00 | 0.00 | 48 | 1014.1 |
| 20260509000806 | 58 | 195 | 6.0 | 9.0 | 0.00 | 0.00 | 0.00 | 47 | 1014.0 |
| 20260509000306 | 58 | 205 | 5.0 | 9.0 | 0.00 | 0.00 | 0.00 | 47 | 1013.9 |
| 20260508235805 | 58 | 222 | 3.0 | 10.0 | 0.00 | 0.00 | 0.00 | 45 | 1014.1 |
| 20260508235307 | 59 | 222 | 3.0 | 10.0 | 0.00 | 0.00 | 0.00 | 44 | 1013.8 |
| 20260508234806 | 59 | 220 | 5.0 | 13.0 | 0.00 | 0.00 | 0.00 | 43 | 1014.0 |
| 20260508234306 | 59 | 184 | 5.0 | 13.0 | 0.00 | 0.00 | 0.00 | 42 | 1013.8 |
| 20260508233806 | 60 | 208 | 6.0 | 13.0 | 0.00 | 0.00 | 0.00 | 41 | 1013.7 |
| 20260508233306 | 60 | 211 | 7.0 | 14.0 | 0.00 | 0.00 | 0.00 | 41 | 1013.6 |
| 20260508232807 | 60 | 228 | 5.0 | 13.0 | 0.00 | 0.00 | 0.00 | 40 | 1013.5 |
| 20260508232307 | 61 | 151 | 7.0 | 13.0 | 0.00 | 0.00 | 0.00 | 39 | 1013.3 |
| 20260508231306 | 61 | 258 | 5.0 | 10.0 | 0.00 | 0.00 | 0.00 | 38 | 1013.1 |
| 20260508230806 | 61 | 226 | 2.0 | 15.0 | 0.00 | 0.00 | 0.00 | 38 | 1013.2 |
| 20260508225806 | 61 | 203 | 7.0 | 10.0 | 0.00 | 0.00 | 0.00 | 37 | 1013.2 |
| 20260508225307 | 62 | 221 | 5.0 | 12.0 | 0.00 | 0.00 | 0.00 | 37 | 1013.2 |
| 20260508224806 | 62 | 245 | 7.0 | 14.0 | 0.00 | 0.00 | 0.00 | 38 | 1012.9 |
| 20260508224305 | 62 | 212 | 7.0 | 14.0 | 0.00 | 0.00 | 0.00 | 36 | 1013.1 |
| 20260508223806 | 63 | 193 | 1.0 | 9.0 | 0.00 | 0.00 | 0.00 | 36 | 1012.6 |
| 20260508223306 | 62 | 175 | 3.0 | 8.0 | 0.00 | 0.00 | 0.00 | 37 | 1012.9 |
| 20260508222805 | 62 | 162 | 5.0 | 13.0 | 0.00 | 0.00 | 0.00 | 35 | 1012.9 |
| 20260508222306 | 62 | 140 | 7.0 | 13.0 | 0.00 | 0.00 | 0.00 | 35 | 1012.9 |
| 20260508221805 | 62 | 243 | 10.0 | 14.0 | 0.00 | 0.00 | 0.00 | 35 | 1012.4 |
| 20260508221306 | 63 | 134 | 2.0 | 10.0 | 0.00 | 0.00 | 0.00 | 35 | 1012.2 |
| 20260508220805 | 63 | 231 | 6.0 | 12.0 | 0.00 | 0.00 | 0.00 | 36 | 1012.2 |
| 20260508220306 | 64 | 231 | 2.0 | 7.0 | 0.00 | 0.00 | 0.00 | 33 | 1012.0 |
| 20260508215306 | 64 | 199 | 3.0 | 9.0 | 0.00 | 0.00 | 0.00 | 31 | 1011.9 |
| 20260508214305 | 64 | 252 | 5.0 | 10.0 | 0.00 | 0.00 | 0.00 | 31 | 1011.8 |
| 20260508213806 | 64 | 242 | 5.0 | 9.0 | 0.00 | 0.00 | 0.00 | 30 | 1012.0 |
| 20260508213306 | 65 | 237 | 9.0 | 12.0 | 0.00 | 0.00 | 0.00 | 30 | 1011.5 |
| 20260508212805 | 65 | 262 | 2.0 | 8.0 | 0.00 | 0.00 | 0.00 | 31 | 1011.7 |
| 20260508211806 | 64 | 246 | 4.0 | 9.0 | 0.00 | 0.00 | 0.00 | 32 | 1011.9 |
| 20260508211305 | 64 | 126 | 7.0 | 8.0 | 0.00 | 0.00 | 0.00 | 30 | 1012.1 |
| 20260508210306 | 65 | 243 | 6.0 | 7.0 | 0.00 | 0.00 | 0.00 | 30 | 1011.9 |
| 20260508205806 | 65 | 243 | 6.0 | 9.0 | 0.00 | 0.00 | 0.00 | 30 | 1012.2 |
| 20260508205306 | 64 | 266 | 5.0 | 16.0 | 0.00 | 0.00 | 0.00 | 33 | 1012.1 |
| 20260508204805 | 65 | 217 | 7.0 | 16.0 | 0.00 | 0.00 | 0.00 | 31 | 1012.3 |
| 20260508204306 | 64 | 209 | 11.0 | 14.0 | 0.00 | 0.00 | 0.00 | 32 | 1012.4 |
| 20260508203805 | 65 | 279 | 3.0 | 5.0 | 0.00 | 0.00 | 0.00 | 34 | 1012.5 |
| 20260508203305 | 65 | 279 | 3.0 | 7.0 | 0.00 | 0.00 | 0.00 | 34 | 1012.5 |
| 20260508202805 | 65 | 239 | 5.0 | 7.0 | 0.00 | 0.00 | 0.00 | 33 | 1012.3 |
| 20260508202307 | 65 | 252 | 3.0 | 12.0 | 0.00 | 0.00 | 0.00 | 35 | 1012.5 |
| 20260508201805 | 66 | 285 | 6.0 | 12.0 | 0.00 | 0.00 | 0.00 | 31 | 1012.4 |
| 20260508201305 | 64 | 229 | 3.0 | 7.0 | 0.00 | 0.00 | 0.00 | 35 | 1012.7 |
| 20260508200805 | 64 | 214 | 5.0 | 7.0 | 0.00 | 0.00 | 0.00 | 32 | 1012.9 |
| 20260508200305 | 64 | 211 | 5.0 | 8.0 | 0.00 | 0.00 | 0.00 | 32 | 1013.0 |
| 20260508195805 | 63 | 240 | 10.0 | 16.0 | 0.00 | 0.00 | 0.00 | 32 | 1012.7 |
| 20260508195306 | 66 | 210 | 13.0 | 16.0 | 0.00 | 0.00 | 0.00 | 30 | 1012.4 |
| 20260508194805 | 66 | 210 | 13.0 | 16.0 | 0.00 | 0.00 | 0.00 | 30 | 1012.4 |
| 20260508194306 | 65 | 240 | 3.0 | 5.0 | 0.00 | 0.00 | 0.00 | 31 | 1012.8 |
| 20260508193805 | 62 | 121 | 3.0 | 5.0 | 0.00 | 0.00 | 0.00 | 32 | 1017.2 |
| 20260508192806 | 62 | 121 | 3.0 | 8.0 | 0.00 | 0.00 | 0.00 | 32 | 1013.8 |
| 20260508192306 | 64 | 155 | 7.0 | 8.0 | 0.00 | 0.00 | 0.00 | 31 | 1013.4 |
| 20260508191305 | 64 | 78 | 6.0 | 7.0 | 0.00 | 0.00 | 0.00 | 31 | 1017.9 |
| 20260508190805 | 64 | 78 | 6.0 | 7.0 | 0.00 | 0.00 | 0.00 | 31 | 1017.4 |
| 20260508190305 | 64 | 78 | 6.0 | 7.0 | 0.00 | 0.00 | 0.00 | 31 | 1017.6 |
| 20260508185805 | 64 | 78 | 6.0 | 7.0 | 0.00 | 0.00 | 0.00 | 31 | 1017.1 |
| 20260508185306 | 64 | 78 | 6.0 | 7.0 | 0.00 | 0.00 | 0.00 | 31 | 1013.5 |
| 20260508184805 | 65 | 62 | 7.0 | 10.0 | 0.00 | 0.00 | 0.00 | 31 | 1014.8 |
| 20260508184305 | 65 | 35 | 8.0 | 10.0 | 0.00 | 0.00 | 0.00 | 30 | 1013.6 |
| 20260508183805 | 65 | 35 | 8.0 | 10.0 | 0.00 | 0.00 | 0.00 | 30 | 1013.6 |
| 20260508183305 | 62 | 32 | 6.0 | 8.0 | 0.00 | 0.00 | 0.00 | 32 | 1017.3 |
| 20260508182805 | 62 | 32 | 6.0 | 8.0 | 0.00 | 0.00 | 0.00 | 32 | 1014.1 |
| 20260508182306 | 62 | 42 | 6.0 | 9.0 | 0.00 | 0.00 | 0.00 | 32 | 1014.2 |
| 20260508181805 | 63 | 70 | 6.0 | 9.0 | 0.00 | 0.00 | 0.00 | 31 | 1014.2 |
| 20260508181305 | 62 | 36 | 1.0 | 2.0 | 0.00 | 0.00 | 0.00 | 33 | 1018.4 |
| 20260508180805 | 62 | 36 | 1.0 | 2.0 | 0.00 | 0.00 | 0.00 | 33 | 1017.5 |
| 20260508180305 | 62 | 36 | 1.0 | 2.0 | 0.00 | 0.00 | 0.00 | 33 | 1014.9 |
| 20260508174805 | 62 | 169 | 0.0 | 0.0 | 0.00 | 0.00 | 0.00 | 34 | 1015.1 |
| 20260508174305 | 62 | 167 | 2.0 | 5.0 | 0.00 | 0.00 | 0.00 | 34 | 1015.1 |
| 20260508173305 | 62 | 83 | 5.0 | 9.0 | 0.00 | 0.00 | 0.00 | 33 | 1015.1 |
| 20260508172805 | 61 | 40 | 5.0 | 9.0 | 0.00 | 0.00 | 0.00 | 31 | 1015.3 |
| 20260508172307 | 62 | 70 | 5.0 | 12.0 | 0.00 | 0.00 | 0.00 | 30 | 1015.1 |
| 20260508171805 | 64 | 32 | 5.0 | 7.0 | 0.00 | 0.00 | 0.00 | 35 | 1014.8 |
| 20260508171305 | 63 | 21 | 3.0 | 8.0 | 0.00 | 0.00 | 0.00 | 34 | 1015.2 |
| 20260508170805 | 62 | 58 | 2.0 | 9.0 | 0.00 | 0.00 | 0.00 | 34 | 1015.3 |
| 20260508170305 | 61 | 66 | 5.0 | 9.0 | 0.00 | 0.00 | 0.00 | 31 | 1015.8 |
| 20260508165805 | 62 | 357 | 3.0 | 3.0 | 0.00 | 0.00 | 0.00 | 36 | 1015.9 |
| 20260508164305 | 61 | 343 | 2.0 | 5.0 | 0.00 | 0.00 | 0.00 | 36 | 1016.1 |
| 20260508163805 | 62 | 27 | 3.0 | 5.0 | 0.00 | 0.00 | 0.00 | 30 | 1016.1 |
| 20260508163305 | 61 | 332 | 2.0 | 6.0 | 0.00 | 0.00 | 0.00 | 38 | 1016.2 |
| 20260508162805 | 62 | 31 | 3.0 | 6.0 | 0.00 | 0.00 | 0.00 | 30 | 1016.3 |
| 20260508161804 | 59 | 27 | 2.0 | 12.0 | 0.00 | 0.00 | 0.00 | 36 | 1016.9 |
| 20260508161305 | 59 | 117 | 2.0 | 5.0 | 0.00 | 0.00 | 0.00 | 32 | 1017.2 |
| 20260508160804 | 58 | 342 | 3.0 | 10.0 | 0.00 | 0.00 | 0.00 | 34 | 1017.1 |
| 20260508160304 | 59 | 29 | 7.0 | 12.0 | 0.00 | 0.00 | 0.00 | 33 | 1017.3 |
| 20260508155805 | 57 | 29 | 6.0 | 9.0 | 0.00 | 0.00 | 0.00 | 33 | 1017.9 |
| 20260508154805 | 57 | 28 | 8.0 | 14.0 | 0.00 | 0.00 | 0.00 | 35 | 1017.9 |
| 20260508154305 | 57 | 55 | 6.0 | 12.0 | 0.00 | 0.00 | 0.00 | 34 | 1017.7 |
| 20260508153805 | 58 | 50 | 9.0 | 12.0 | 0.00 | 0.00 | 0.00 | 33 | 1017.6 |
| 20260508152805 | 59 | 32 | 2.0 | 5.0 | 0.00 | 0.00 | 0.00 | 38 | 1017.8 |
| 20260508152306 | 59 | 13 | 2.0 | 6.0 | 0.00 | 0.00 | 0.00 | 37 | 1017.6 |
| 20260508151304 | 58 | 83 | 0.0 | 1.0 | 0.00 | 0.00 | 0.00 | 39 | 1020.6 |
| 20260508150804 | 58 | 83 | 0.0 | 1.0 | 0.00 | 0.00 | 0.00 | 39 | 1020.4 |
| 20260508145805 | 58 | 83 | 0.0 | 3.0 | 0.00 | 0.00 | 0.00 | 39 | 1017.6 |
| 20260508144805 | 58 | 1 | 0.0 | 3.0 | 0.00 | 0.00 | 0.00 | 40 | 1017.9 |
| 20260508143805 | 55 | 43 | 1.0 | 5.0 | 0.00 | 0.00 | 0.00 | 37 | 1018.1 |
| 20260508143305 | 56 | 260 | 2.0 | 3.0 | 0.00 | 0.00 | 0.00 | 35 | 1018.1 |
| 20260508142804 | 56 | 324 | 1.0 | 6.0 | 0.00 | 0.00 | 0.00 | 41 | 1018.1 |
| 20260508142306 | 56 | 73 | 3.0 | 8.0 | 0.00 | 0.00 | 0.00 | 37 | 1018.1 |
| 20260508141804 | 56 | 38 | 3.0 | 6.0 | 0.00 | 0.00 | 0.00 | 38 | 1017.9 |
| 20260508140804 | 55 | 327 | 1.0 | 7.0 | 0.00 | 0.00 | 0.00 | 43 | 1018.6 |
| 20260508140304 | 56 | 71 | 5.0 | 6.0 | 0.00 | 0.00 | 0.00 | 42 | 1018.2 |
| 20260508135805 | 56 | 65 | 2.0 | 5.0 | 0.00 | 0.00 | 0.00 | 44 | 1018.0 |
| 20260508135306 | 55 | 333 | 1.0 | 5.0 | 0.00 | 0.00 | 0.00 | 41 | 1018.3 |
| 20260508134804 | 54 | 48 | 3.0 | 5.0 | 0.00 | 0.00 | 0.00 | 42 | 1018.5 |
| 20260508134304 | 53 | 267 | 1.0 | 5.0 | 0.00 | 0.00 | 0.00 | 41 | 1018.5 |
| 20260508133804 | 52 | 258 | 1.0 | 5.0 | 0.00 | 0.00 | 0.00 | 43 | 1018.8 |
| 20260508132805 | 54 | 324 | 2.0 | 6.0 | 0.00 | 0.00 | 0.00 | 41 | 1018.3 |
| 20260508132306 | 54 | 3 | 2.0 | 6.0 | 0.00 | 0.00 | 0.00 | 46 | 1018.2 |
| 20260508131304 | 53 | 301 | 1.0 | 3.0 | 0.00 | 0.00 | 0.00 | 45 | 1018.5 |
| 20260508130804 | 51 | 280 | 0.0 | 5.0 | 0.00 | 0.00 | 0.00 | 56 | 1018.8 |
| 20260508130304 | 51 | 307 | 2.0 | 5.0 | 0.00 | 0.00 | 0.00 | 50 | 1018.9 |
| 20260508125805 | 50 | 311 | 2.0 | 6.0 | 0.00 | 0.00 | 0.00 | 55 | 1018.9 |
| 20260508125306 | 50 | 297 | 2.0 | 5.0 | 0.00 | 0.00 | 0.00 | 53 | 1019.1 |
| 20260508124804 | 49 | 300 | 2.0 | 3.0 | 0.00 | 0.00 | 0.00 | 59 | 1018.9 |
| 20260508124304 | 49 | 306 | 3.0 | 5.0 | 0.00 | 0.00 | 0.00 | 55 | 1019.2 |
| 20260508123804 | 49 | 285 | 2.0 | 6.0 | 0.00 | 0.00 | 0.00 | 58 | 1019.3 |
| 20260508122804 | 48 | 311 | 4.0 | 6.0 | 0.00 | 0.00 | 0.00 | 55 | 1019.4 |
| 20260508122307 | 48 | 298 | 3.0 | 6.0 | 0.00 | 0.00 | 0.00 | 54 | 1019.5 |
| 20260508121303 | 47 | 286 | 3.0 | 6.0 | 0.00 | 0.00 | 0.00 | 54 | 1019.5 |
| 20260508120804 | 47 | 282 | 2.0 | 6.0 | 0.00 | 0.00 | 0.00 | 53 | 1019.3 |
| 20260508120304 | 47 | 280 | 3.0 | 5.0 | 0.00 | 0.00 | 0.00 | 52 | 1019.4 |
| 20260508115804 | 47 | 249 | 2.0 | 3.0 | 0.00 | 0.00 | 0.00 | 52 | 1019.5 |
| 20260508114804 | 48 | 232 | 1.0 | 2.0 | 0.00 | 0.00 | 0.00 | 51 | 1019.3 |
| 20260508114304 | 47 | 212 | 1.0 | 3.0 | 0.00 | 0.00 | 0.00 | 51 | 1019.2 |
| 20260508113804 | 47 | 237 | 1.0 | 2.0 | 0.00 | 0.00 | 0.00 | 54 | 1019.2 |
| 20260508112804 | 44 | 238 | 1.0 | 2.0 | 0.00 | 0.00 | 0.00 | 57 | 1019.6 |
| 20260508111804 | 43 | 270 | 3.0 | 6.0 | 0.00 | 0.00 | 0.00 | 61 | 1019.5 |
| 20260508111304 | 44 | 275 | 3.0 | 7.0 | 0.00 | 0.00 | 0.00 | 61 | 1019.8 |
| 20260508110803 | 43 | 277 | 3.0 | 7.0 | 0.00 | 0.00 | 0.00 | 61 | 1019.6 |
| 20260508110304 | 43 | 270 | 2.0 | 6.0 | 0.00 | 0.00 | 0.00 | 62 | 1019.7 |
| 20260508105803 | 43 | 280 | 3.0 | 6.0 | 0.00 | 0.00 | 0.00 | 62 | 1020.0 |
| 20260508105306 | 42 | 271 | 3.0 | 5.0 | 0.00 | 0.00 | 0.00 | 63 | 1019.7 |
| 20260508104804 | 42 | 252 | 2.0 | 6.0 | 0.00 | 0.00 | 0.00 | 66 | 1019.9 |
| 20260508104304 | 42 | 264 | 2.0 | 6.0 | 0.00 | 0.00 | 0.00 | 66 | 1019.8 |
| 20260508103803 | 42 | 255 | 3.0 | 6.0 | 0.00 | 0.00 | 0.00 | 67 | 1019.8 |
| 20260508103304 | 41 | 258 | 3.0 | 6.0 | 0.00 | 0.00 | 0.00 | 68 | 1019.7 |
| 20260508102306 | 41 | 243 | 2.0 | 5.0 | 0.00 | 0.00 | 0.00 | 70 | 1019.9 |
| 20260508101804 | 41 | 251 | 3.0 | 6.0 | 0.00 | 0.00 | 0.00 | 70 | 1019.9 |
| 20260508100804 | 41 | 263 | 3.0 | 6.0 | 0.00 | 0.00 | 0.00 | 71 | 1019.8 |
| 20260508100303 | 41 | 244 | 2.0 | 6.0 | 0.00 | 0.00 | 0.00 | 73 | 1019.9 |
| 20260508095804 | 42 | 278 | 3.0 | 6.0 | 0.00 | 0.00 | 0.00 | 70 | 1019.6 |
| 20260508095306 | 42 | 244 | 2.0 | 6.0 | 0.00 | 0.00 | 0.00 | 68 | 1019.3 |
| 20260508094804 | 42 | 241 | 3.0 | 5.0 | 0.00 | 0.00 | 0.00 | 68 | 1019.5 |
| 20260508094304 | 43 | 256 | 3.0 | 5.0 | 0.00 | 0.00 | 0.00 | 67 | 1019.2 |
| 20260508093304 | 43 | 250 | 3.0 | 5.0 | 0.00 | 0.00 | 0.00 | 68 | 1019.5 |
| 20260508092312 | 42 | 259 | 3.0 | 5.0 | 0.00 | 0.00 | 0.00 | 69 | 1019.4 |
| 20260508091803 | 42 | 243 | 2.0 | 5.0 | 0.00 | 0.00 | 0.00 | 69 | 1019.4 |
| 20260508091304 | 42 | 258 | 3.0 | 7.0 | 0.00 | 0.00 | 0.00 | 69 | 1019.4 |
| 20260508090808 | 43 | 264 | 3.0 | 8.0 | 0.00 | 0.00 | 0.00 | 68 | 1019.0 |
| 20260508090307 | 43 | 245 | 3.0 | 7.0 | 0.00 | 0.00 | 0.00 | 69 | 1019.2 |
| 20260508085808 | 43 | 265 | 4.0 | 7.0 | 0.00 | 0.00 | 0.00 | 68 | 1019.1 |
| 20260508085308 | 43 | 263 | 3.0 | 7.0 | 0.00 | 0.00 | 0.00 | 69 | 1019.1 |
| 20260508084808 | 42 | 274 | 4.0 | 7.0 | 0.00 | 0.00 | 0.00 | 69 | 1019.3 |
| 20260508084307 | 42 | 241 | 5.0 | 7.0 | 0.00 | 0.01 | 0.00 | 71 | 1019.3 |
| 20260508083807 | 42 | 251 | 3.0 | 5.0 | 0.00 | 0.01 | 0.00 | 71 | 1019.2 |
| 20260508083307 | 42 | 251 | 3.0 | 5.0 | 0.00 | 0.01 | 0.00 | 72 | 1019.3 |
| 20260508082807 | 42 | 252 | 3.0 | 3.0 | 0.00 | 0.01 | 0.00 | 73 | 1019.3 |
| 20260508082307 | 42 | 248 | 2.0 | 3.0 | 0.00 | 0.01 | 0.00 | 73 | 1019.5 |
| 20260508081808 | 42 | 253 | 2.0 | 5.0 | 0.00 | 0.01 | 0.00 | 74 | 1019.3 |
| 20260508081307 | 42 | 269 | 4.0 | 7.0 | 0.00 | 0.01 | 0.00 | 74 | 1019.3 |
| 20260508080808 | 41 | 271 | 5.0 | 7.0 | 0.00 | 0.01 | 0.00 | 76 | 1019.2 |
| 20260508080308 | 41 | 252 | 2.0 | 3.0 | 0.00 | 0.01 | 0.00 | 79 | 1019.6 |
| 20260508074807 | 42 | 244 | 1.0 | 1.0 | 0.00 | 0.01 | 0.00 | 76 | 1019.2 |
| 20260508074307 | 43 | 267 | 1.0 | 5.0 | 0.00 | 0.01 | 0.00 | 74 | 1019.0 |
| 20260508073807 | 43 | 266 | 2.0 | 3.0 | 0.00 | 0.01 | 0.00 | 74 | 1019.0 |
| 20260508073307 | 43 | 258 | 3.0 | 5.0 | 0.00 | 0.01 | 0.00 | 75 | 1019.0 |
| 20260508072308 | 43 | 268 | 4.0 | 7.0 | 0.00 | 0.01 | 0.00 | 75 | 1018.8 |
| 20260508071307 | 43 | 269 | 3.0 | 6.0 | 0.00 | 0.01 | 0.00 | 76 | 1019.0 |
| 20260508065807 | 43 | 272 | 4.0 | 6.0 | 0.00 | 0.01 | 0.00 | 78 | 1018.9 |
| 20260508065307 | 43 | 284 | 3.0 | 6.0 | 0.00 | 0.01 | 0.00 | 79 | 1018.6 |
| 20260508064807 | 43 | 257 | 3.0 | 6.0 | 0.00 | 0.01 | 0.00 | 79 | 1018.8 |
| 20260508064307 | 43 | 243 | 2.0 | 5.0 | 0.00 | 0.01 | 0.00 | 79 | 1018.9 |
| 20260508063307 | 44 | 277 | 2.0 | 5.0 | 0.00 | 0.01 | 0.00 | 79 | 1018.8 |
| 20260508062807 | 44 | 271 | 2.0 | 6.0 | 0.00 | 0.01 | 0.00 | 80 | 1018.7 |
| 20260508062307 | 44 | 253 | 4.0 | 6.0 | 0.00 | 0.01 | 0.00 | 80 | 1018.7 |
| 20260508061807 | 44 | 280 | 4.0 | 8.0 | 0.00 | 0.01 | 0.00 | 79 | 1018.5 |
| 20260508061307 | 44 | 266 | 5.0 | 8.0 | 0.00 | 0.01 | 0.00 | 79 | 1018.9 |
| 20260508060807 | 45 | 268 | 5.0 | 7.0 | 0.00 | 0.01 | 0.00 | 78 | 1018.6 |
| 20260508060307 | 45 | 269 | 5.0 | 7.0 | 0.00 | 0.01 | 0.00 | 78 | 1018.6 |
| 20260508055807 | 45 | 274 | 5.0 | 9.0 | 0.00 | 0.01 | 0.00 | 78 | 1018.6 |
| 20260508055307 | 45 | 261 | 7.0 | 9.0 | 0.00 | 0.01 | 0.00 | 79 | 1018.6 |
| 20260508054807 | 45 | 265 | 7.0 | 9.0 | 0.00 | 0.01 | 0.00 | 80 | 1018.6 |
| 20260508054307 | 45 | 270 | 6.0 | 9.0 | 0.00 | 0.01 | 0.00 | 79 | 1018.6 |
| 20260508053807 | 45 | 282 | 7.0 | 9.0 | 0.00 | 0.01 | 0.00 | 79 | 1018.4 |
| 20260508053307 | 45 | 288 | 7.0 | 10.0 | 0.00 | 0.01 | 0.00 | 80 | 1018.5 |
| 20260508052807 | 45 | 280 | 8.0 | 12.0 | 0.00 | 0.01 | 0.00 | 80 | 1018.6 |
| 20260508052307 | 45 | 270 | 8.0 | 12.0 | 0.00 | 0.01 | 0.00 | 80 | 1018.5 |
| 20260508051807 | 45 | 274 | 8.0 | 12.0 | 0.00 | 0.01 | 0.00 | 80 | 1018.3 |
| 20260508051307 | 45 | 273 | 8.0 | 9.0 | 0.00 | 0.01 | 0.00 | 82 | 1018.6 |
| 20260508050806 | 45 | 269 | 6.0 | 10.0 | 0.00 | 0.01 | 0.00 | 81 | 1018.3 |
| 20260508050307 | 45 | 278 | 7.0 | 10.0 | 0.00 | 0.01 | 0.00 | 83 | 1018.3 |
| 20260508045807 | 45 | 262 | 7.0 | 8.0 | 0.00 | 0.01 | 0.00 | 83 | 1018.0 |
| 20260508045307 | 45 | 270 | 6.0 | 10.0 | 0.00 | 0.01 | 0.00 | 83 | 1018.2 |
| 20260508044807 | 46 | 261 | 8.0 | 10.0 | 0.00 | 0.01 | 0.00 | 82 | 1018.1 |
| 20260508044307 | 46 | 258 | 6.0 | 9.0 | 0.00 | 0.01 | 0.00 | 83 | 1018.0 |
| 20260508043806 | 46 | 266 | 6.0 | 9.0 | 0.00 | 0.01 | 0.00 | 83 | 1018.0 |
| 20260508043307 | 46 | 269 | 6.0 | 9.0 | 0.00 | 0.01 | 0.00 | 83 | 1017.9 |